Voltar ao catálogo

FLOCK 4G 1

AtivoCiênciaSSO
NORAD 62666·PAYLOAD·🇺🇸 United States

Lançado Jan 14, 2025 de Vandenberg Space Force Base

Loading…

Próximas Passagens (próximas 24 horas)

TLE

AtualizadoSource: CelesTrak SupGP

Época: Sep 14, 2026, 14:44 UTC

1 62666C 25009BK  26257.61417824  .00010840  00000+0  35947-3 0  2577
2 62666  97.3973 339.3259 0004150  24.0529 212.1607 15.31303493    14

Acompanhe FLOCK 4G 1 em tempo real com AllMySat

Download on the App Store